"Pseudo-MPEC" for P22g72A

Created 2025 Oct 5 20:35:20 UT using Find_Orb

Click here for an explanation of pseudo-MPECs

 
 Astrometry: 
     P22g72A  C2025 10 01.40363904 37 14.698+12 27 33.01   ~A1Fo 21.28gUNEOCPI41
     P22g72A  C2025 10 01.44692004 37 41.551+12 17 52.30   ~A1Fo 20.34rUNEOCPI41
     P22g72A* C2025 10 01.49715004 38 21.172+12 07 18.34   ~A1DZ 21.21wXNEOCPF52
     P22g72A  C2025 10 01.50858704 38 28.173+12 04 46.92   ~A1DZ 20.47wXNEOCPF52
     P22g72A  C2025 10 01.51999504 38 35.118+12 02 15.11   ~A1DZ 20.74wXNEOCPF52
     P22g72A  C2025 10 01.53140904 38 42.006+11 59 43.95   ~A1DZ 20.90wXNEOCPF52
     P22g72A  C2025 10 01.57228304 39 06.289+11 50 43.18   ~A1NK 20.56GVNEOCPF51
     P22g72A  C2025 10 01.57309804 39 06.785+11 50 31.99   ~A1NK 20.44GVNEOCPF51
     P22g72A pC2025 10 01.94236404 43 16.33 +10 29 00.6    ~A1NZ 19.9 GVNEOCPL01
     P22g72A KC2025 10 01.94607504 43 18.54 +10 28 13.4    ~A1NZ 20.1 GVNEOCPL01
     P22g72A KC2025 10 01.94681604 43 19.04 +10 28 03.9    ~A1NZ 20.1 GVNEOCPL01
     P22g72A KB2025 10 02.00264204 43 54.01 +10 16 26.0    ~A20o 20.7 GVNEOCPI93
     P22g72A KB2025 10 02.00972404 43 58.25 +10 14 56.9    ~A20o 21.1 GVNEOCPI93
     P22g72A KC2025 10 05.40559605 11 36.661+00 41 29.98   ~A5AZ 21.60GVNEOCPI52
     P22g72A KC2025 10 05.41275505 11 38.980+00 40 32.45   ~A5AZ 21.31GVNEOCPI52
     P22g72A KC2025 10 05.41746105 11 40.480+00 39 54.50   ~A5AZ       VNEOCPI52
     P22g72A  C2025 10 05.62188705 12 51.748+00 13 21.95   ~A5IZ 20.74GVNEOCPF51
     P22g72A  C2025 10 05.62270505 12 51.982+00 13 15.81   ~A5IZ 21.10GVNEOCPF51

Station data:
(F51) Pan-STARRS 1, Haleakala  (N20.707234 W156.255910)  US/Hawaii.
   Observers J. Herman, T. Lowe, P. Minguez, A. Schultz, I. Smith. Measurers
   K. Chambers, T. de Boer, J. Fairlamb, H. Gao, M. Huber, C.-C. Lin, E.
   Magnier, Y. Ramanjooloo, R. Wainscoat, R. Weryk. 1.8-m Ritchey-Chrétien +
   CCD.
(F52) Pan-STARRS 2, Haleakala  (N20.707382 W156.255910)  US/Hawaii.
   Observers J. Herman, T. Lowe, P. Minguez, A. Schultz, I. Smith. Measurers
   K. Chambers, T. de Boer, J. Fairlamb, H. Gao, M. Huber, C.-C. Lin, E.
   Magnier, Y. Ramanjooloo, R. Wainscoat, R. Weryk. 1.8-m Ritchey-Chrétien +
   CCD.
(I41) Palomar Mountain--ZTF  (N33.357336 W116.859780)  US/California.
   Observers B. T. Bolin, Z. T. F. Collaboration. Measurers B. T. Bolin,
   Z.-Y. Lin, F. J. Masci. 1.2-m f/2.4 Schmidt.
(I52) Steward Observatory, Mt. Lemmon Station  (N32.442570 W110.788920)
   US/Arizona. Measurers T. Beuden, V. F. Carvajal, D. Fay, J. B. Fazekas, D.
   C. Fuls, A. R. Gibbs, A. D. Grauer, H. Gröller, J. K. Hogan, R. A.
   Kowalski, S. M. Larson, G. J. Leonard, D. Rankin, R. L. Seaman, F. C.
   Shelly, K. W. Wierzchoś. 1.0-m prime focus + CCD.
(I93) St Pardon de Conques  (N44.558670 W0.202960)  France.  Observers F.
   Losse, W. D'Anna. Measurer F. Losse. 0.40-m f/3.7 reflector + CCD.
(L01) Višnjan Observatory, Tičan  (N45.290897 E13.749300)  Croatia.
   Observers K. Korlević, L. Poropat. Measurer K. Korlevic. 1.0-m f/2.9
   reflector + CCD.

Orbital elements:  P22g72A
   Perihelion 2025 Oct 1.225517 +/- 0.0116 TT =  5:24:44.6 (JD 2460949.725517)
Epoch 2025 Oct  5.0 TT = JDT 2460953.5   Earth MOID: 0.0193      AutoNEOCP
M   1.750437375 +/- 0.0007          (J2000 ecliptic)
n   0.463755566 +/- 0.0015          Peri.  182.066110 +/- 0.012
a   1.653014356 +/- 0.00357         Node   187.799828 +/- 0.0045
e   0.38273447 +/- 0.0013           Incl.    9.284350 +/- 0.022
P   2.125/776.256d         H 25.50  G  0.15   U  8.4
q 1.020348768 +/- 5.38e-5    Q 2.285679944 +/- 0.0071
From 18 observations 2025 Oct. 1-5; mean residual 0".44
Residuals in arcseconds: 
251001 I41  .27+  .86-    251001 F51  .04-  .07+    251002 I93  .33+  .59-    
251001 I41  .44+  .60-    251001 F51  .19+  .34-    251005 I52  .06+  .38-    
251001 F52  .38-  .67+    251001 L01  .46-  .28+    251005 I52  .15+  .26-    
251001 F52  .23-  .67+    251001 L01  1.3-  .53-    251005 I52  .06-  .35-    
251001 F52  .14+  .13-    251001 L01  .54-  .77-    251005 F51  .09+  .05-    
251001 F52  .31+  .20-    251002 I93  .02-  .59+    251005 F51  .09-  .22+    

Ephemerides (geocentric):
Date (UTC) HH   RA             Dec           delta  r     elong  mag " sig PA
---- --------  ------------   ------------  ------ ------ -----  --- --------
2025 10 05 21  05 14 23.460   -00 18 11.72  .05293 1.0215 112.8 21.5 .122  45
2025 10 05 22  05 14 38.149   -00 23 27.12  .05307 1.0215 112.8 21.5 .123  55
2025 10 05 23  05 14 52.755   -00 28 40.86  .05321 1.0216 112.7 21.5 .128  64
2025 10 06 00  05 15 07.278   -00 33 52.94  .05335 1.0216 112.7 21.5 .136  72
2025 10 06 01  05 15 21.719   -00 39 03.37  .05349 1.0216 112.7 21.5 .146  79
2025 10 06 02  05 15 36.078   -00 44 12.17  .05363 1.0216 112.6 21.5 .158  85
2025 10 06 03  05 15 50.356   -00 49 19.35  .05377 1.0217 112.6 21.5 .171  90
2025 10 06 04  05 16 04.553   -00 54 24.91  .05391 1.0217 112.6 21.5 .187  95
2025 10 06 05  05 16 18.671   -00 59 28.88  .05405 1.0217 112.6 21.5 .203  99
2025 10 06 06  05 16 32.709   -01 04 31.25  .05419 1.0217 112.5 21.5 .220 102
2025 10 06 07  05 16 46.669   -01 09 32.04  .05433 1.0217 112.5 21.5 .238 105
2025 10 06 08  05 17 00.551   -01 14 31.25  .05447 1.0218 112.5 21.5 .256 107
2025 10 06 09  05 17 14.354   -01 19 28.91  .05462 1.0218 112.4 21.5 .275 110
2025 10 06 10  05 17 28.081   -01 24 25.01  .05476 1.0218 112.4 21.5 .295 111
2025 10 06 11  05 17 41.732   -01 29 19.57  .05490 1.0218 112.4 21.5 .314 113
2025 10 06 12  05 17 55.306   -01 34 12.60  .05504 1.0219 112.3 21.5 .334 115
2025 10 06 13  05 18 08.805   -01 39 04.11  .05518 1.0219 112.3 21.6 .355 116
2025 10 06 14  05 18 22.229   -01 43 54.11  .05532 1.0219 112.3 21.6 .376 117
2025 10 06 15  05 18 35.579   -01 48 42.60  .05547 1.0219 112.3 21.6 .396 118
2025 10 06 16  05 18 48.855   -01 53 29.60  .05561 1.0220 112.2 21.6 .418 119
2025 10 06 17  05 19 02.058   -01 58 15.12  .05575 1.0220 112.2 21.6 .439 120
2025 10 06 18  05 19 15.188   -02 02 59.17  .05589 1.0220 112.2 21.6 .460 121
2025 10 06 19  05 19 28.246   -02 07 41.75  .05604 1.0220 112.2 21.6 .482 121
2025 10 06 20  05 19 41.232   -02 12 22.88  .05618 1.0221 112.1 21.6 .504 122
2025 10 06 21  05 19 54.147   -02 17 02.57  .05632 1.0221 112.1 21.6 .526 123
2025 10 06 22  05 20 06.992   -02 21 40.82  .05646 1.0221 112.1 21.6 .548 123
2025 10 06 23  05 20 19.766   -02 26 17.64  .05661 1.0221 112.1 21.6 .571 124
2025 10 07 00  05 20 32.470   -02 30 53.05  .05675 1.0222 112.0 21.6 .593 124
2025 10 07 01  05 20 45.105   -02 35 27.05  .05689 1.0222 112.0 21.6 .616 125
2025 10 07 02  05 20 57.671   -02 39 59.65  .05704 1.0222 112.0 21.6 .638 125
2025 10 07 03  05 21 10.169   -02 44 30.87  .05718 1.0222 112.0 21.6 .661 125
2025 10 07 04  05 21 22.599   -02 49 00.70  .05732 1.0223 111.9 21.6 .684 126
2025 10 07 05  05 21 34.962   -02 53 29.16  .05747 1.0223 111.9 21.7 .707 126
2025 10 07 06  05 21 47.258   -02 57 56.26  .05761 1.0223 111.9 21.7 .730 126
2025 10 07 07  05 21 59.487   -03 02 22.01  .05776 1.0223 111.9 21.7 .753 127
2025 10 07 08  05 22 11.651   -03 06 46.41  .05790 1.0224 111.8 21.7 .777 127
2025 10 07 09  05 22 23.749   -03 11 09.48  .05805 1.0224 111.8 21.7 .800 127
2025 10 07 10  05 22 35.782   -03 15 31.22  .05819 1.0224 111.8 21.7 .824 128
2025 10 07 11  05 22 47.750   -03 19 51.64  .05833 1.0225 111.8 21.7 .847 128
2025 10 07 12  05 22 59.654   -03 24 10.75  .05848 1.0225 111.7 21.7 .871 128
2025 10 07 13  05 23 11.494   -03 28 28.56  .05862 1.0225 111.7 21.7 .895 128
2025 10 07 14  05 23 23.271   -03 32 45.08  .05877 1.0225 111.7 21.7 .918 128
2025 10 07 15  05 23 34.985   -03 37 00.31  .05891 1.0226 111.7 21.7 .942 129
2025 10 07 16  05 23 46.637   -03 41 14.26  .05906 1.0226 111.7 21.7 .966 129
2025 10 07 17  05 23 58.226   -03 45 26.95  .05921 1.0226 111.6 21.7 0.99 129
2025 10 07 18  05 24 09.754   -03 49 38.38  .05935 1.0227 111.6 21.7 1.01 129
2025 10 07 19  05 24 21.221   -03 53 48.55  .05950 1.0227 111.6 21.7 1.04 129
2025 10 07 20  05 24 32.627   -03 57 57.48  .05964 1.0227 111.6 21.7 1.06 130